This demonstration page uses our WeatherBlox Daily Observations layout. Learn more.

Left ArrowRight Arrow

34.02893, -84.19858

Hourly Observations for April 13, 2022

Temp ( °F °C ) Dew Point ( °F °C ) Humidity (%) Winds ( mph kmh ) Pressure ( in mb ) Visibility ( mi km ) Precip ( " mm )
12:53 am 00:53 Clear 66 18.9 56 13.3 70 70 SSE 3 6 30.05 1018 10 16 0.00 0.00
1:53 am 01:53 Clear 66 18.9 56 13.3 70 70 S 6 9 30.06 1018 10 16 0.00 0.00
2:53 am 02:53 Clear 66 18.9 56 13.3 70 70 S 6 9 30.04 1017 10 16 0.00 0.00
3:53 am 03:53 Clear 63 17.2 56 13.3 78 78 SSE 5 7 30.01 1016 10 16 0.00 0.00
4:53 am 04:53 Clear 63 17.2 57 13.9 81 81 SSE 3 6 30.00 1016 10 16 0.00 0.00
5:53 am 05:53 Clear 62 16.7 57 13.9 84 84 ESE 3 6 29.99 1016 10 16 0.00 0.00
6:53 am 06:53 Clear 62 16.7 55 12.8 78 78 Calm 29.98 1015 10 16 0.00 0.00
7:53 am 07:53 Mostly Sunny 62 16.7 55 12.8 78 78 S 6 9 30.03 1017 10 16 0.00 0.00
8:53 am 08:53 Mostly Cloudy 64 17.8 56 13.3 75 75 Calm 30.10 1019 10 16 0.00 0.00
9:53 am 09:53 Mostly Cloudy 65 18.3 57 13.9 76 76 S 3 6 30.11 1020 10 16 0.00 0.00
10:53 am 10:53 Sunny 70 21.1 58 14.4 66 66 VRB 7 11 30.07 1018 10 16 0.00 0.00
11:53 am 11:53 Partly Cloudy 71 21.7 59 15 66 66 S 9 15 30.05 1018 10 16 0.00 0.00
12:53 pm 12:53 Sunny 71 21.7 59 15 66 66 S 8 13 30.03 1017 10 16 0.00 0.00
1:53 pm 13:53 Partly Cloudy 75 23.9 60 15.6 60 60 S 18 30 29.99 1016 10 16 0.00 0.00
2:53 pm 14:53 Mostly Sunny 74 23.3 58 14.4 57 57 S 14 22 29.97 1015 10 16 0.00 0.00
3:53 pm 15:53 Mostly Sunny 74 23.3 59 15 60 60 S 13 20 29.95 1014 10 16 0.00 0.00
4:53 pm 16:53 Sunny 72 22.2 57 13.9 59 59 S 8 13 29.96 1014 10 16 0.00 0.00
5:53 pm 17:53 Mostly Sunny 72 22.2 59 15 64 64 S 7 11 29.96 1015 10 16 0.00 0.00
6:53 pm 18:53 Partly Cloudy 72 22.2 60 15.6 66 66 SSE 8 13 29.93 1014 10 16 0.00 0.00
7:53 pm 19:53 Partly Cloudy 71 21.7 60 15.6 68 68 SE 6 9 29.88 1012 10 16 0.00 0.00
8:53 pm 20:53 Mostly Cloudy 70 21.1 59 15 68 68 S 6 9 29.91 1013 10 16 0.00 0.00
9:53 pm 21:53 Partly Cloudy 68 20 59 15 73 73 SE 5 7 29.93 1013 10 16 0.00 0.00
10:53 pm 22:53 Mostly Clear 67 19.4 59 15 76 76 SE 5 7 29.94 1014 10 16 0.00 0.00
11:53 pm 23:53 Mostly Cloudy 67 19.4 59 15 76 76 S 5 7 29.97 1015 10 16 0.00 0.00

Powered by AerisWeather